LAN133 SLLP-SKBO

Flight info

Callsign LAN133
Flight time 3h 10m
Altitude 35000
Route ELAMU DCT BOKAP UL309 RCO/N0456F340 UL417 PABON UP530 VVC DCT EGEPI EGEPI4W
Aircraft A21N/M-SDE2E3FGHIRWXY/LB1

Departure

Time 2026-04-24 20:29
Airport El Alto International Airport (SLLP)

Arrival

Time 2026-04-24 23:40
Airport El Dorado International Airport (SKBO)
Time Latitude Longitude Altitude Speed Heading
2026-04-24 20:17 -16.51010 -68.17618 13368 ft 0 kts 27°
2026-04-24 20:18 -16.51027 -68.17628 13341 ft 4 kts 41°
2026-04-24 20:19 -16.51042 -68.17649 13340 ft 4 kts 79°
2026-04-24 20:19 -16.51039 -68.17670 13341 ft 1 kts 119°
2026-04-24 20:19 -16.51037 -68.17675 13339 ft 0 kts 119°
2026-04-24 20:25 -16.51037 -68.17674 13341 ft 0 kts 119°
2026-04-24 20:25 -16.51095 -68.17588 13339 ft 25 kts 133°
2026-04-24 20:25 -16.51187 -68.17479 13335 ft 16 kts 130°
2026-04-24 20:26 -16.51265 -68.17387 13332 ft 17 kts 143°
2026-04-24 20:26 -16.51294 -68.17370 13332 ft 0 kts 167°
2026-04-24 20:26 -16.51295 -68.17370 13332 ft 0 kts 167°
2026-04-24 20:27 -16.51308 -68.17367 13331 ft 4 kts 171°
2026-04-24 20:27 -16.51357 -68.17363 13332 ft 9 kts 177°
2026-04-24 20:27 -16.51390 -68.17420 13330 ft 11 kts 268°
2026-04-24 20:27 -16.51389 -68.17431 13330 ft 0 kts 270°
2026-04-24 20:28 -16.51388 -68.17562 13328 ft 54 kts 271°
2026-04-24 20:28 -16.51365 -68.18229 13311 ft 128 kts 271°
2026-04-24 20:28 -16.51330 -68.19365 13282 ft 177 kts 271°
2026-04-24 20:29 -16.51300 -68.20261 13213 ft 196 kts 272°
2026-04-24 20:29 -16.51215 -68.22224 13496 ft 203 kts 272°
2026-04-24 20:29 -16.51008 -68.23714 13797 ft 217 kts 290°
2026-04-24 20:29 -16.50226 -68.25072 14305 ft 220 kts 308°
2026-04-24 20:30 -16.49260 -68.26310 14814 ft 221 kts 310°
2026-04-24 20:30 -16.48274 -68.27580 15041 ft 234 kts 309°
2026-04-24 20:30 -16.47243 -68.28958 15206 ft 248 kts 308°
2026-04-24 20:30 -16.46178 -68.30433 15383 ft 262 kts 307°
2026-04-24 20:31 -16.45041 -68.31982 15552 ft 276 kts 308°
2026-04-24 20:31 -16.43843 -68.33625 15503 ft 299 kts 307°
2026-04-24 20:31 -16.42562 -68.35398 15719 ft 313 kts 307°
2026-04-24 20:31 -16.41223 -68.37266 15902 ft 329 kts 306°
2026-04-24 20:32 -16.39821 -68.39210 16080 ft 344 kts 307°
2026-04-24 20:32 -16.38345 -68.41243 16270 ft 358 kts 307°
2026-04-24 20:32 -16.36814 -68.43362 16438 ft 373 kts 307°
2026-04-24 20:32 -16.35229 -68.45567 16481 ft 387 kts 307°
2026-04-24 20:33 -16.33589 -68.47830 16878 ft 393 kts 307°
2026-04-24 20:33 -16.31929 -68.50109 17412 ft 396 kts 307°
2026-04-24 20:33 -16.30263 -68.52397 17985 ft 398 kts 307°
2026-04-24 20:33 -16.28586 -68.54708 18504 ft 401 kts 307°
2026-04-24 20:34 -16.26682 -68.56855 18959 ft 405 kts 319°
2026-04-24 20:34 -16.24331 -68.58468 19399 ft 407 kts 335°
2026-04-24 20:34 -16.21678 -68.59420 19797 ft 411 kts 346°
2026-04-24 20:34 -16.18898 -68.60159 20229 ft 414 kts 347°
2026-04-24 20:35 -16.16097 -68.60904 20688 ft 416 kts 346°
2026-04-24 20:35 -16.13288 -68.61690 21181 ft 418 kts 346°
2026-04-24 20:35 -16.10470 -68.62489 21647 ft 420 kts 346°
2026-04-24 20:35 -16.07648 -68.63289 22124 ft 421 kts 346°
2026-04-24 20:36 -16.04816 -68.64091 22615 ft 423 kts 346°
2026-04-24 20:36 -16.01966 -68.64897 23054 ft 426 kts 346°
2026-04-24 20:36 -15.99095 -68.65710 23488 ft 428 kts 346°
2026-04-24 20:36 -15.96222 -68.66526 23870 ft 430 kts 346°
2026-04-24 20:37 -15.93326 -68.67346 24231 ft 433 kts 346°
2026-04-24 20:37 -15.90413 -68.68170 24564 ft 435 kts 346°
2026-04-24 20:37 -15.87483 -68.68997 24898 ft 437 kts 346°
2026-04-24 20:37 -15.84531 -68.69832 25227 ft 440 kts 346°
2026-04-24 20:38 -15.81569 -68.70670 25561 ft 442 kts 346°
2026-04-24 20:38 -15.78589 -68.71510 25882 ft 445 kts 346°
2026-04-24 20:38 -15.75561 -68.72191 26226 ft 445 kts 354°
2026-04-24 20:38 -15.72473 -68.72295 26532 ft 445 kts
2026-04-24 20:39 -15.69462 -68.71745 26836 ft 445 kts 17°
2026-04-24 20:39 -15.66551 -68.70636 27130 ft 447 kts 24°
2026-04-24 20:39 -15.63673 -68.69381 27429 ft 449 kts 24°
2026-04-24 20:39 -15.60780 -68.68123 27743 ft 451 kts 24°
2026-04-24 20:40 -15.57879 -68.66882 28017 ft 453 kts 24°
2026-04-24 20:40 -15.54945 -68.65634 28286 ft 455 kts 24°
2026-04-24 20:40 -15.52005 -68.64390 28557 ft 457 kts 24°
2026-04-24 20:40 -15.49051 -68.63146 28844 ft 459 kts 24°
2026-04-24 20:41 -15.46084 -68.61897 29116 ft 461 kts 24°
2026-04-24 20:41 -15.43094 -68.60637 29384 ft 464 kts 24°
2026-04-24 20:41 -15.40101 -68.59376 29596 ft 466 kts 24°
2026-04-24 20:41 -15.37087 -68.58105 29898 ft 467 kts 24°
2026-04-24 20:42 -15.34080 -68.56836 30250 ft 466 kts 24°
2026-04-24 20:42 -15.31084 -68.55572 30575 ft 465 kts 24°
2026-04-24 20:42 -15.28092 -68.54310 30861 ft 464 kts 24°
2026-04-24 20:42 -15.25105 -68.53048 31145 ft 463 kts 24°
2026-04-24 20:43 -15.22122 -68.51789 31462 ft 462 kts 24°
2026-04-24 20:43 -15.19141 -68.50535 31786 ft 461 kts 24°
2026-04-24 20:43 -15.16222 -68.49310 32086 ft 459 kts 24°
2026-04-24 20:43 -15.13256 -68.48066 32374 ft 459 kts 24°
2026-04-24 20:44 -15.10302 -68.46824 32662 ft 457 kts 24°
2026-04-24 20:44 -15.07348 -68.45584 32897 ft 457 kts 24°
2026-04-24 20:44 -15.04407 -68.44350 33195 ft 456 kts 24°
2026-04-24 20:44 -15.01469 -68.43117 33458 ft 455 kts 24°
2026-04-24 20:45 -14.98539 -68.41888 33729 ft 454 kts 24°
2026-04-24 20:45 -14.95612 -68.40660 33996 ft 453 kts 24°
2026-04-24 20:45 -14.92689 -68.39431 34207 ft 452 kts 24°
2026-04-24 20:45 -14.89775 -68.38207 34402 ft 452 kts 23°
2026-04-24 20:46 -14.86862 -68.36986 34592 ft 452 kts 23°
2026-04-24 20:46 -14.83952 -68.35766 34805 ft 451 kts 23°
2026-04-24 20:46 -14.81039 -68.34546 34989 ft 451 kts 23°
2026-04-24 20:46 -14.78134 -68.33330 35031 ft 450 kts 23°
2026-04-24 20:47 -14.72372 -68.30917 35005 ft 450 kts 23°
2026-04-24 20:47 -14.66537 -68.28476 35003 ft 457 kts 23°
2026-04-24 20:48 -14.60589 -68.25994 35003 ft 464 kts 23°
2026-04-24 20:48 -14.54582 -68.23492 34997 ft 465 kts 23°
2026-04-24 20:49 -14.48597 -68.20989 34990 ft 464 kts 23°
2026-04-24 20:49 -14.42593 -68.18483 34956 ft 465 kts 22°
2026-04-24 20:50 -14.36595 -68.15979 34954 ft 465 kts 23°
2026-04-24 20:50 -14.30577 -68.13472 34954 ft 466 kts 22°
2026-04-24 20:51 -14.24378 -68.11741 34946 ft 468 kts
2026-04-24 20:51 -14.17873 -68.11390 34948 ft 468 kts
2026-04-24 20:52 -14.11365 -68.11094 34925 ft 468 kts
2026-04-24 20:52 -14.04866 -68.10762 34921 ft 468 kts
2026-04-24 20:53 -13.98351 -68.10429 34925 ft 468 kts
2026-04-24 20:53 -13.91848 -68.10095 34926 ft 468 kts
2026-04-24 20:54 -13.85338 -68.09762 34912 ft 468 kts
2026-04-24 20:54 -13.78830 -68.09429 34913 ft 468 kts
2026-04-24 20:55 -13.72315 -68.09095 34903 ft 468 kts
2026-04-24 20:55 -13.65806 -68.08762 34903 ft 468 kts
2026-04-24 20:56 -13.59296 -68.08430 34894 ft 468 kts
2026-04-24 20:56 -13.52790 -68.08097 34892 ft 467 kts
2026-04-24 20:57 -13.46326 -68.07766 34889 ft 468 kts
2026-04-24 20:57 -13.39822 -68.07436 34890 ft 468 kts
2026-04-24 20:58 -13.33317 -68.07104 34893 ft 468 kts
2026-04-24 20:58 -13.26803 -68.06770 34892 ft 468 kts
2026-04-24 20:59 -13.20294 -68.06439 34892 ft 469 kts
2026-04-24 20:59 -13.13765 -68.06105 34891 ft 469 kts
2026-04-24 21:00 -13.07227 -68.05773 34893 ft 469 kts
2026-04-24 21:00 -13.00742 -68.05447 34895 ft 469 kts
2026-04-24 21:01 -12.94209 -68.05113 34893 ft 469 kts
2026-04-24 21:01 -12.87681 -68.04784 34893 ft 470 kts
2026-04-24 21:02 -12.81133 -68.04451 34892 ft 472 kts
2026-04-24 21:02 -12.74579 -68.04111 34890 ft 472 kts
2026-04-24 21:03 -12.68012 -68.03770 34891 ft 472 kts
2026-04-24 21:03 -12.61466 -68.03437 34890 ft 472 kts
2026-04-24 21:04 -12.54941 -68.03104 34888 ft 472 kts
2026-04-24 21:04 -12.48354 -68.02764 34889 ft 475 kts
2026-04-24 21:05 -12.41752 -68.02425 34890 ft 475 kts
2026-04-24 21:05 -12.35128 -68.02082 34892 ft 475 kts
2026-04-24 21:06 -12.28523 -68.01739 34891 ft 476 kts
2026-04-24 21:06 -12.21954 -68.01405 34891 ft 475 kts
2026-04-24 21:07 -12.15368 -68.01069 34892 ft 472 kts
2026-04-24 21:07 -12.08800 -68.00731 34890 ft 472 kts
2026-04-24 21:08 -12.02232 -68.00392 34891 ft 472 kts
2026-04-24 21:08 -11.95665 -68.00062 34890 ft 472 kts
2026-04-24 21:09 -11.89091 -67.99728 34891 ft 472 kts
2026-04-24 21:09 -11.83637 -67.99448 34895 ft 473 kts
2026-04-24 21:10 -11.77052 -67.99110 34893 ft 473 kts
2026-04-24 21:10 -11.70483 -67.98771 34897 ft 473 kts
2026-04-24 21:11 -11.63912 -67.98439 34897 ft 473 kts
2026-04-24 21:11 -11.57372 -67.98105 34896 ft 473 kts
2026-04-24 21:12 -11.50767 -67.97769 34901 ft 471 kts
2026-04-24 21:12 -11.44271 -67.97438 34900 ft 470 kts
2026-04-24 21:13 -11.37727 -67.97106 34896 ft 470 kts
2026-04-24 21:13 -11.31197 -67.96772 34902 ft 470 kts
2026-04-24 21:14 -11.24652 -67.96439 34903 ft 470 kts
2026-04-24 21:14 -11.18115 -67.96104 34909 ft 470 kts
2026-04-24 21:15 -11.11581 -67.95774 34904 ft 471 kts
2026-04-24 21:15 -11.05045 -67.95438 34901 ft 470 kts
2026-04-24 21:16 -10.98500 -67.95105 34903 ft 470 kts
2026-04-24 21:16 -10.91963 -67.94774 34904 ft 470 kts
2026-04-24 21:17 -10.85458 -67.94445 34901 ft 470 kts
2026-04-24 21:17 -10.78923 -67.94113 34899 ft 470 kts
2026-04-24 21:18 -10.72384 -67.93784 34900 ft 470 kts
2026-04-24 21:18 -10.65843 -67.93448 34904 ft 471 kts
2026-04-24 21:19 -10.59301 -67.93163 34896 ft 470 kts
2026-04-24 21:19 -10.52792 -67.92941 34896 ft 470 kts
2026-04-24 21:20 -10.42947 -67.92583 34903 ft 473 kts
2026-04-24 21:21 -10.36369 -67.92342 34902 ft 473 kts
2026-04-24 21:21 -10.29793 -67.92096 34903 ft 473 kts
2026-04-24 21:22 -10.23218 -67.91850 34898 ft 473 kts
2026-04-24 21:22 -10.16642 -67.91608 34901 ft 473 kts
2026-04-24 21:23 -10.10053 -67.91366 34900 ft 473 kts
2026-04-24 21:23 -10.03464 -67.91128 34904 ft 474 kts
2026-04-24 21:24 -9.96877 -67.90884 34904 ft 474 kts
2026-04-24 21:24 -9.90289 -67.90648 34908 ft 474 kts
2026-04-24 21:25 -9.83757 -67.91566 34896 ft 476 kts 346°
2026-04-24 21:25 -9.77429 -67.93418 34902 ft 476 kts 345°
2026-04-24 21:26 -9.71053 -67.95265 34902 ft 476 kts 345°
2026-04-24 21:26 -9.64663 -67.97089 34902 ft 476 kts 345°
2026-04-24 21:27 -9.58281 -67.98867 34899 ft 476 kts 346°
2026-04-24 21:27 -9.51890 -68.00666 34901 ft 476 kts 345°
2026-04-24 21:28 -9.45504 -68.02475 34898 ft 476 kts 346°
2026-04-24 21:28 -9.39163 -68.04229 34899 ft 476 kts 345°
2026-04-24 21:29 -9.32787 -68.06050 34903 ft 476 kts 346°
2026-04-24 21:29 -9.26407 -68.07847 34875 ft 476 kts 346°
2026-04-24 21:29 -9.23228 -68.08747 34722 ft 475 kts 345°
2026-04-24 21:30 -9.20037 -68.09673 34523 ft 475 kts 345°
2026-04-24 21:30 -9.16865 -68.10631 34298 ft 476 kts 345°
2026-04-24 21:30 -9.13693 -68.11593 34071 ft 477 kts 345°
2026-04-24 21:30 -9.10517 -68.12550 33900 ft 476 kts 345°
2026-04-24 21:31 -9.07330 -68.13505 33863 ft 477 kts 345°
2026-04-24 21:31 -9.00955 -68.15416 33883 ft 477 kts 345°
2026-04-24 21:32 -8.94592 -68.17317 33903 ft 477 kts 345°
2026-04-24 21:32 -8.88220 -68.19231 33903 ft 477 kts 345°
2026-04-24 21:33 -8.81897 -68.21126 33904 ft 477 kts 345°
2026-04-24 21:33 -8.75522 -68.23018 33901 ft 477 kts 345°
2026-04-24 21:34 -8.69146 -68.24923 33901 ft 478 kts 345°
2026-04-24 21:34 -8.62772 -68.26830 33901 ft 478 kts 345°
2026-04-24 21:35 -8.56392 -68.28736 33903 ft 478 kts 345°
2026-04-24 21:35 -8.50015 -68.30637 33903 ft 478 kts 345°
2026-04-24 21:36 -8.43624 -68.32540 33903 ft 479 kts 345°
2026-04-24 21:36 -8.37228 -68.34447 33904 ft 479 kts 345°
2026-04-24 21:37 -8.30863 -68.36341 33902 ft 479 kts 345°
2026-04-24 21:37 -8.24470 -68.38248 33898 ft 479 kts 345°
2026-04-24 21:38 -8.18069 -68.40161 33901 ft 479 kts 345°
2026-04-24 21:38 -8.11672 -68.42069 33904 ft 479 kts 345°
2026-04-24 21:39 -8.05275 -68.43962 33905 ft 478 kts 345°
2026-04-24 21:39 -7.98886 -68.45862 33899 ft 478 kts 345°
2026-04-24 21:40 -7.92512 -68.47762 33893 ft 478 kts 345°
2026-04-24 21:40 -7.86167 -68.49645 33895 ft 478 kts 345°
2026-04-24 21:41 -7.79773 -68.51551 33896 ft 478 kts 345°
2026-04-24 21:41 -7.73386 -68.53445 33898 ft 479 kts 345°
2026-04-24 21:42 -7.66981 -68.55342 33897 ft 480 kts 345°
2026-04-24 21:42 -7.60574 -68.57254 33895 ft 480 kts 345°
2026-04-24 21:43 -7.54204 -68.59139 33890 ft 480 kts 345°
2026-04-24 21:43 -7.47788 -68.61033 33889 ft 480 kts 345°
2026-04-24 21:44 -7.41381 -68.62925 33891 ft 480 kts 345°
2026-04-24 21:44 -7.34980 -68.64817 33891 ft 480 kts 345°
2026-04-24 21:45 -7.28574 -68.66709 33894 ft 480 kts 345°
2026-04-24 21:45 -7.22152 -68.68607 33890 ft 480 kts 345°
2026-04-24 21:46 -7.15743 -68.70503 33887 ft 480 kts 345°
2026-04-24 21:46 -7.09375 -68.72379 33895 ft 480 kts 345°
2026-04-24 21:47 -7.02956 -68.74277 33891 ft 481 kts 345°
2026-04-24 21:47 -6.96533 -68.76185 33889 ft 481 kts 345°
2026-04-24 21:48 -6.90109 -68.78082 33885 ft 481 kts 345°
2026-04-24 21:48 -6.83682 -68.79968 33890 ft 481 kts 345°
2026-04-24 21:49 -6.77239 -68.81862 33888 ft 481 kts 345°
2026-04-24 21:49 -6.70805 -68.83759 33889 ft 482 kts 345°
2026-04-24 21:50 -6.64368 -68.85664 33889 ft 482 kts 345°
2026-04-24 21:50 -6.57934 -68.87588 33886 ft 483 kts 345°
2026-04-24 21:51 -6.51516 -68.89489 33880 ft 483 kts 345°
2026-04-24 21:51 -6.45067 -68.91386 33881 ft 483 kts 345°
2026-04-24 21:52 -6.38615 -68.93273 33883 ft 483 kts 346°
2026-04-24 21:52 -6.32164 -68.95175 33884 ft 482 kts 345°
2026-04-24 21:53 -6.25723 -68.97082 33885 ft 482 kts 346°
2026-04-24 21:53 -6.19276 -68.98990 33886 ft 482 kts 346°
2026-04-24 21:54 -6.12829 -69.00897 33887 ft 482 kts 346°
2026-04-24 21:54 -6.06391 -69.02801 33883 ft 482 kts 346°
2026-04-24 21:55 -5.99985 -69.04693 33882 ft 483 kts 345°
2026-04-24 21:55 -5.93539 -69.06597 33880 ft 483 kts 345°
2026-04-24 21:56 -5.87093 -69.08501 33882 ft 483 kts 345°
2026-04-24 21:56 -5.81733 -69.10085 33880 ft 483 kts 345°
2026-04-24 21:57 -5.75286 -69.11990 33875 ft 483 kts 345°
2026-04-24 21:57 -5.68832 -69.13895 33876 ft 483 kts 345°
2026-04-24 21:58 -5.62348 -69.15810 33878 ft 487 kts 345°
2026-04-24 21:58 -5.55859 -69.17727 33875 ft 487 kts 345°
2026-04-24 21:59 -5.49352 -69.19648 33874 ft 486 kts 346°
2026-04-24 21:59 -5.42874 -69.21558 33872 ft 485 kts 346°
2026-04-24 22:00 -5.36393 -69.23470 33873 ft 485 kts 346°
2026-04-24 22:00 -5.29945 -69.25370 33877 ft 487 kts 346°
2026-04-24 22:01 -5.23446 -69.27283 33876 ft 487 kts 346°
2026-04-24 22:01 -5.16934 -69.29204 33874 ft 487 kts 346°
2026-04-24 22:02 -5.10429 -69.31119 33869 ft 487 kts 346°
2026-04-24 22:02 -5.03924 -69.33034 33871 ft 487 kts 346°
2026-04-24 22:03 -4.97419 -69.34953 33874 ft 488 kts 346°
2026-04-24 22:03 -4.90885 -69.36874 33867 ft 490 kts 346°
2026-04-24 22:04 -4.84338 -69.38803 33866 ft 490 kts 346°
2026-04-24 22:04 -4.77840 -69.40716 33874 ft 490 kts 346°
2026-04-24 22:05 -4.71298 -69.42640 33872 ft 490 kts 346°
2026-04-24 22:05 -4.64754 -69.44584 33870 ft 490 kts 345°
2026-04-24 22:06 -4.58191 -69.46559 33871 ft 493 kts 345°
2026-04-24 22:06 -4.51623 -69.48531 33873 ft 493 kts 345°
2026-04-24 22:07 -4.45051 -69.50503 33873 ft 493 kts 345°
2026-04-24 22:07 -4.38468 -69.52478 33873 ft 493 kts 345°
2026-04-24 22:08 -4.31928 -69.54439 33871 ft 494 kts 345°
2026-04-24 22:08 -4.25328 -69.56419 33866 ft 495 kts 345°
2026-04-24 22:09 -4.18722 -69.58398 33863 ft 496 kts 345°
2026-04-24 22:09 -4.12113 -69.60393 33864 ft 496 kts 345°
2026-04-24 22:10 -4.05506 -69.62382 33869 ft 496 kts 345°
2026-04-24 22:10 -3.98894 -69.64352 33871 ft 496 kts 345°
2026-04-24 22:11 -3.92278 -69.66334 33864 ft 496 kts 345°
2026-04-24 22:11 -3.85706 -69.68305 33861 ft 496 kts 345°
2026-04-24 22:12 -3.79089 -69.70285 33862 ft 496 kts 345°
2026-04-24 22:12 -3.72481 -69.72264 33870 ft 496 kts 345°
2026-04-24 22:13 -3.65865 -69.74246 33867 ft 496 kts 345°
2026-04-24 22:13 -3.59286 -69.76218 33863 ft 496 kts 345°
2026-04-24 22:14 -3.52678 -69.78197 33863 ft 496 kts 345°
2026-04-24 22:14 -3.46061 -69.80175 33861 ft 496 kts 346°
2026-04-24 22:15 -3.39435 -69.82117 33859 ft 496 kts 346°
2026-04-24 22:15 -3.32810 -69.84063 33864 ft 496 kts 346°
2026-04-24 22:16 -3.26185 -69.86008 33866 ft 496 kts 346°
2026-04-24 22:16 -3.19563 -69.87953 33858 ft 496 kts 346°
2026-04-24 22:17 -3.12971 -69.89894 33863 ft 496 kts 346°
2026-04-24 22:17 -3.06342 -69.91846 33857 ft 497 kts 346°
2026-04-24 22:18 -2.99710 -69.93800 33862 ft 497 kts 346°
2026-04-24 22:18 -2.93074 -69.95749 33856 ft 497 kts 346°
2026-04-24 22:19 -2.86442 -69.97697 33859 ft 497 kts 345°
2026-04-24 22:19 -2.79818 -69.99641 33868 ft 496 kts 345°
2026-04-24 22:20 -2.73231 -70.01574 33862 ft 496 kts 345°
2026-04-24 22:20 -2.66833 -70.04213 33867 ft 498 kts 336°
2026-04-24 22:21 -2.60575 -70.07201 33862 ft 498 kts 336°
2026-04-24 22:21 -2.54304 -70.10177 33859 ft 498 kts 336°
2026-04-24 22:22 -2.48057 -70.13134 33871 ft 494 kts 336°
2026-04-24 22:22 -2.41858 -70.16068 33868 ft 493 kts 336°
2026-04-24 22:23 -2.35652 -70.19006 33865 ft 493 kts 336°
2026-04-24 22:23 -2.29475 -70.21931 33868 ft 495 kts 336°
2026-04-24 22:24 -2.23236 -70.24879 33868 ft 496 kts 336°
2026-04-24 22:24 -2.16997 -70.27834 33867 ft 496 kts 336°
2026-04-24 22:25 -2.10766 -70.30775 33866 ft 494 kts 336°
2026-04-24 22:25 -2.04539 -70.33718 33866 ft 494 kts 336°
2026-04-24 22:26 -1.98320 -70.36658 33871 ft 494 kts 336°
2026-04-24 22:26 -1.92100 -70.39597 33871 ft 494 kts 336°
2026-04-24 22:27 -1.85882 -70.42540 33867 ft 494 kts 336°
2026-04-24 22:27 -1.79665 -70.45487 33867 ft 494 kts 336°
2026-04-24 22:28 -1.73450 -70.48421 33873 ft 494 kts 336°
2026-04-24 22:28 -1.67231 -70.51360 33871 ft 494 kts 336°
2026-04-24 22:29 -1.57949 -70.55751 33871 ft 495 kts 336°
2026-04-24 22:29 -1.51710 -70.58701 33869 ft 496 kts 336°
2026-04-24 22:30 -1.45475 -70.61654 33872 ft 496 kts 336°
2026-04-24 22:30 -1.39229 -70.64604 33871 ft 496 kts 336°
2026-04-24 22:31 -1.32992 -70.67550 33870 ft 496 kts 336°
2026-04-24 22:31 -1.26751 -70.70500 33863 ft 496 kts 336°
2026-04-24 22:32 -1.20559 -70.73432 33862 ft 496 kts 336°
2026-04-24 22:32 -1.14323 -70.76375 33864 ft 496 kts 336°
2026-04-24 22:33 -1.08087 -70.79318 33871 ft 496 kts 336°
2026-04-24 22:33 -1.01838 -70.82273 33869 ft 497 kts 336°
2026-04-24 22:34 -0.95595 -70.85228 33864 ft 497 kts 336°
2026-04-24 22:34 -0.89333 -70.88185 33866 ft 497 kts 336°
2026-04-24 22:35 -0.83069 -70.91145 33868 ft 498 kts 336°
2026-04-24 22:35 -0.76799 -70.94113 33864 ft 498 kts 336°
2026-04-24 22:36 -0.70565 -70.97061 33872 ft 499 kts 336°
2026-04-24 22:36 -0.64294 -71.00029 33868 ft 499 kts 336°
2026-04-24 22:37 -0.58014 -71.02997 33868 ft 499 kts 336°
2026-04-24 22:37 -0.51740 -71.05965 33869 ft 499 kts 336°
2026-04-24 22:38 -0.45457 -71.08926 33866 ft 499 kts 336°
2026-04-24 22:38 -0.39168 -71.11891 33866 ft 499 kts 336°
2026-04-24 22:39 -0.32882 -71.14859 33871 ft 499 kts 336°
2026-04-24 22:39 -0.26600 -71.17830 33870 ft 499 kts 336°
2026-04-24 22:40 -0.20365 -71.20776 33866 ft 499 kts 336°
2026-04-24 22:40 -0.14089 -71.23738 33865 ft 499 kts 336°
2026-04-24 22:41 -0.07809 -71.26704 33867 ft 499 kts 336°
2026-04-24 22:41 -0.02593 -71.29171 33862 ft 499 kts 336°
2026-04-24 22:42 0.04738 -71.32640 33864 ft 497 kts 336°
2026-04-24 22:42 0.09943 -71.35093 33866 ft 497 kts 336°
2026-04-24 22:43 0.17221 -71.38529 33866 ft 497 kts 336°
2026-04-24 22:43 0.23479 -71.41487 33865 ft 497 kts 336°
2026-04-24 22:44 0.28721 -71.43965 33868 ft 497 kts 336°
2026-04-24 22:44 0.34967 -71.46917 33866 ft 497 kts 336°
2026-04-24 22:45 0.41210 -71.49872 33868 ft 495 kts 336°
2026-04-24 22:45 0.47402 -71.52794 33869 ft 495 kts 336°
2026-04-24 22:46 0.53637 -71.55741 33870 ft 495 kts 336°
2026-04-24 22:46 0.59866 -71.58686 33868 ft 495 kts 336°
2026-04-24 22:47 0.66090 -71.61624 33868 ft 495 kts 336°
2026-04-24 22:47 0.72325 -71.64572 33869 ft 495 kts 336°
2026-04-24 22:48 0.78533 -71.67508 33870 ft 493 kts 336°
2026-04-24 22:48 0.84694 -71.70421 33872 ft 493 kts 336°
2026-04-24 22:49 0.90896 -71.73353 33871 ft 493 kts 336°
2026-04-24 22:49 0.97105 -71.76286 33869 ft 493 kts 336°
2026-04-24 22:50 1.03307 -71.79217 33869 ft 493 kts 336°
2026-04-24 22:50 1.09513 -71.82154 33873 ft 493 kts 336°
2026-04-24 22:51 1.15739 -71.85100 33872 ft 495 kts 336°
2026-04-24 22:51 1.21965 -71.88048 33867 ft 495 kts 336°
2026-04-24 22:52 1.28152 -71.90973 33872 ft 495 kts 336°
2026-04-24 22:52 1.34373 -71.93923 33871 ft 494 kts 336°
2026-04-24 22:53 1.40376 -71.97310 33872 ft 496 kts 331°
2026-04-24 22:53 1.46315 -72.00814 33872 ft 496 kts 331°
2026-04-24 22:54 1.52276 -72.04340 33871 ft 498 kts 331°
2026-04-24 22:54 1.58248 -72.07868 33874 ft 498 kts 331°
2026-04-24 22:55 1.64213 -72.11388 33879 ft 498 kts 331°
2026-04-24 22:55 1.70184 -72.14908 33877 ft 498 kts 331°
2026-04-24 22:56 1.76111 -72.18413 33877 ft 498 kts 331°
2026-04-24 22:56 1.82075 -72.21936 33870 ft 498 kts 331°
2026-04-24 22:57 1.88053 -72.25464 33874 ft 500 kts 331°
2026-04-24 22:57 1.94031 -72.28992 33866 ft 497 kts 331°
2026-04-24 22:58 1.99996 -72.32517 33868 ft 497 kts 331°
2026-04-24 22:58 2.05961 -72.36041 33864 ft 497 kts 331°
2026-04-24 22:59 2.11913 -72.39572 33859 ft 497 kts 331°
2026-04-24 23:00 2.20853 -72.44866 33863 ft 500 kts 331°
2026-04-24 23:00 2.26861 -72.48402 33865 ft 501 kts 331°
2026-04-24 23:01 2.32836 -72.51920 33858 ft 501 kts 331°
2026-04-24 23:01 2.38852 -72.55471 33853 ft 501 kts 331°
2026-04-24 23:02 2.44858 -72.59023 33850 ft 501 kts 331°
2026-04-24 23:02 2.50852 -72.62571 33845 ft 498 kts 331°
2026-04-24 23:03 2.56986 -72.65799 33846 ft 500 kts 336°
2026-04-24 23:03 2.63225 -72.68809 33846 ft 501 kts 336°
2026-04-24 23:04 2.69512 -72.71847 33847 ft 501 kts 336°
2026-04-24 23:04 2.75793 -72.74891 33849 ft 502 kts 336°
2026-04-24 23:05 2.82067 -72.77947 33855 ft 501 kts 336°
2026-04-24 23:05 2.88342 -72.80988 33859 ft 501 kts 336°
2026-04-24 23:06 2.94626 -72.84031 33860 ft 502 kts 335°
2026-04-24 23:06 3.00907 -72.87072 33858 ft 502 kts 336°
2026-04-24 23:07 3.07219 -72.90105 33861 ft 502 kts 336°
2026-04-24 23:07 3.13515 -72.93148 33862 ft 502 kts 335°
2026-04-24 23:08 3.19793 -72.96186 33866 ft 499 kts 336°
2026-04-24 23:08 3.26003 -72.99174 33862 ft 495 kts 336°
2026-04-24 23:09 3.32229 -73.02185 33863 ft 502 kts 336°
2026-04-24 23:09 3.38526 -73.05229 33865 ft 502 kts 336°
2026-04-24 23:10 3.44817 -73.08274 33868 ft 502 kts 336°
2026-04-24 23:10 3.51113 -73.11321 33865 ft 502 kts 336°
2026-04-24 23:11 3.57368 -73.14352 33868 ft 497 kts 336°
2026-04-24 23:11 3.63585 -73.17362 33871 ft 500 kts 336°
2026-04-24 23:12 3.69826 -73.20386 33875 ft 499 kts 335°
2026-04-24 23:12 3.72893 -73.21876 33858 ft 483 kts 335°
2026-04-24 23:12 3.75906 -73.23338 33824 ft 479 kts 335°
2026-04-24 23:12 3.78901 -73.24787 33475 ft 477 kts 335°
2026-04-24 23:13 3.81893 -73.26236 32950 ft 476 kts 335°
2026-04-24 23:13 3.84862 -73.27698 32365 ft 475 kts 335°
2026-04-24 23:13 3.87824 -73.29153 31774 ft 472 kts 335°
2026-04-24 23:13 3.90759 -73.30583 31185 ft 467 kts 335°
2026-04-24 23:14 3.93680 -73.31985 30605 ft 463 kts 336°
2026-04-24 23:14 3.96517 -73.33339 30048 ft 458 kts 335°
2026-04-24 23:14 3.99437 -73.34743 29384 ft 453 kts 335°
2026-04-24 23:14 4.02261 -73.36119 28734 ft 449 kts 334°
2026-04-24 23:15 4.04885 -73.37707 28113 ft 445 kts 324°
2026-04-24 23:15 4.07193 -73.39732 27494 ft 440 kts 313°
2026-04-24 23:15 4.09066 -73.42120 26891 ft 435 kts 303°
2026-04-24 23:15 4.10645 -73.44695 26305 ft 430 kts 301°
2026-04-24 23:16 4.12161 -73.47265 25722 ft 426 kts 301°
2026-04-24 23:16 4.13668 -73.49813 25146 ft 422 kts 301°
2026-04-24 23:16 4.15170 -73.52322 24578 ft 417 kts 301°
2026-04-24 23:16 4.16653 -73.54791 24141 ft 410 kts 301°
2026-04-24 23:17 4.18112 -73.57210 23948 ft 402 kts 302°
2026-04-24 23:17 4.19586 -73.59584 23894 ft 400 kts 305°
2026-04-24 23:17 4.21235 -73.61837 23892 ft 400 kts 308°
2026-04-24 23:17 4.22985 -73.64012 23948 ft 401 kts 310°
2026-04-24 23:18 4.24805 -73.66123 24057 ft 401 kts 312°
2026-04-24 23:18 4.26704 -73.68168 24067 ft 401 kts 311°
2026-04-24 23:18 4.28464 -73.70337 24074 ft 402 kts 308°
2026-04-24 23:18 4.30168 -73.72558 24085 ft 401 kts 307°
2026-04-24 23:19 4.31851 -73.74784 24095 ft 402 kts 307°
2026-04-24 23:19 4.33607 -73.76955 24089 ft 402 kts 315°
2026-04-24 23:19 4.35516 -73.79006 24093 ft 402 kts 309°
2026-04-24 23:19 4.37193 -73.81218 23905 ft 396 kts 306°
2026-04-24 23:20 4.38784 -73.83448 23335 ft 392 kts 306°
2026-04-24 23:20 4.40563 -73.85497 22775 ft 388 kts 319°
2026-04-24 23:20 4.42668 -73.87164 22244 ft 383 kts 323°
2026-04-24 23:20 4.44766 -73.88720 21696 ft 378 kts 323°
2026-04-24 23:21 4.46869 -73.90285 21142 ft 375 kts 323°
2026-04-24 23:21 4.48950 -73.91855 20584 ft 372 kts 322°
2026-04-24 23:21 4.51007 -73.93412 20122 ft 367 kts 322°
2026-04-24 23:21 4.53029 -73.94954 19624 ft 363 kts 321°
2026-04-24 23:22 4.55029 -73.96477 19166 ft 360 kts 322°
2026-04-24 23:22 4.57020 -73.97994 18662 ft 357 kts 322°
2026-04-24 23:22 4.58939 -73.99556 18074 ft 354 kts 315°
2026-04-24 23:22 4.60487 -74.01450 17494 ft 351 kts 301°
2026-04-24 23:23 4.61504 -74.03651 16947 ft 347 kts 289°
2026-04-24 23:23 4.62248 -74.05941 16419 ft 345 kts 287°
2026-04-24 23:23 4.62965 -74.08224 15941 ft 342 kts 288°
2026-04-24 23:23 4.63674 -74.10460 15453 ft 339 kts 288°
2026-04-24 23:24 4.64404 -74.12733 15095 ft 339 kts 288°
2026-04-24 23:24 4.65123 -74.14951 14995 ft 337 kts 288°
2026-04-24 23:24 4.65851 -74.17187 14971 ft 337 kts 288°
2026-04-24 23:24 4.66580 -74.19420 14983 ft 337 kts 288°
2026-04-24 23:25 4.67308 -74.21655 14987 ft 337 kts 288°
2026-04-24 23:25 4.68036 -74.23885 14988 ft 338 kts 288°
2026-04-24 23:25 4.68767 -74.26135 14983 ft 338 kts 288°
2026-04-24 23:25 4.69497 -74.28373 14978 ft 338 kts 288°
2026-04-24 23:26 4.70218 -74.30578 14971 ft 325 kts 288°
2026-04-24 23:26 4.70902 -74.32675 14960 ft 311 kts 288°
2026-04-24 23:26 4.71574 -74.34737 14957 ft 311 kts 288°
2026-04-24 23:26 4.72243 -74.36797 14936 ft 311 kts 288°
2026-04-24 23:27 4.72928 -74.38896 14933 ft 322 kts 288°
2026-04-24 23:27 4.73677 -74.41015 14919 ft 323 kts 295°
2026-04-24 23:27 4.74975 -74.42827 14912 ft 323 kts 314°
2026-04-24 23:27 4.76562 -74.44384 14912 ft 323 kts 316°
2026-04-24 23:28 4.78190 -74.45939 14898 ft 324 kts 315°
2026-04-24 23:28 4.79811 -74.47509 14891 ft 325 kts 315°
2026-04-24 23:28 4.81444 -74.49080 14878 ft 324 kts 318°
2026-04-24 23:28 4.83380 -74.50211 14816 ft 326 kts 341°
2026-04-24 23:29 4.85643 -74.50436 14826 ft 331 kts
2026-04-24 23:29 4.87823 -74.49707 14872 ft 334 kts 30°
2026-04-24 23:29 4.89550 -74.48142 14866 ft 338 kts 53°
2026-04-24 23:29 4.90533 -74.46008 14863 ft 338 kts 77°
2026-04-24 23:30 4.90669 -74.43661 14862 ft 341 kts 98°
2026-04-24 23:30 4.90255 -74.42141 14872 ft 342 kts 114°
2026-04-24 23:30 4.88960 -74.40233 14862 ft 322 kts 139°
2026-04-24 23:30 4.87141 -74.39060 14770 ft 304 kts 156°
2026-04-24 23:31 4.85241 -74.38209 14526 ft 296 kts 158°
2026-04-24 23:31 4.83373 -74.37354 14368 ft 294 kts 156°
2026-04-24 23:31 4.81526 -74.36469 14246 ft 294 kts 155°
2026-04-24 23:31 4.79719 -74.35572 14171 ft 292 kts 154°
2026-04-24 23:32 4.77902 -74.34651 14157 ft 294 kts 154°
2026-04-24 23:32 4.76111 -74.33649 14091 ft 295 kts 150°
2026-04-24 23:32 4.74349 -74.32595 13982 ft 292 kts 150°
2026-04-24 23:32 4.72649 -74.31569 13800 ft 279 kts 150°
2026-04-24 23:33 4.70999 -74.30575 13650 ft 276 kts 150°
2026-04-24 23:33 4.69360 -74.29590 13640 ft 271 kts 150°
2026-04-24 23:33 4.67860 -74.28585 13689 ft 245 kts 141°
2026-04-24 23:33 4.66644 -74.27480 13702 ft 231 kts 138°
2026-04-24 23:34 4.65461 -74.26394 13701 ft 230 kts 138°
2026-04-24 23:34 4.64277 -74.25309 13693 ft 232 kts 139°
2026-04-24 23:34 4.63119 -74.24174 13685 ft 232 kts 131°
2026-04-24 23:34 4.62182 -74.22859 13471 ft 230 kts 124°
2026-04-24 23:35 4.61283 -74.21542 13325 ft 229 kts 125°
2026-04-24 23:35 4.60408 -74.20224 13169 ft 222 kts 123°
2026-04-24 23:35 4.59583 -74.18958 12987 ft 212 kts 125°
2026-04-24 23:35 4.58754 -74.17774 12801 ft 206 kts 127°
2026-04-24 23:36 4.57949 -74.16585 12600 ft 206 kts 116°
2026-04-24 23:36 4.57632 -74.15205 12320 ft 202 kts 96°
2026-04-24 23:36 4.57619 -74.13796 11955 ft 201 kts 84°
2026-04-24 23:36 4.57992 -74.12468 11482 ft 198 kts 65°
2026-04-24 23:37 4.58691 -74.11294 11021 ft 195 kts 53°
2026-04-24 23:37 4.59645 -74.10348 10631 ft 192 kts 33°
2026-04-24 23:37 4.62123 -74.09440 10173 ft 189 kts
2026-04-24 23:38 4.63416 -74.09351 9836 ft 187 kts 355°
2026-04-24 23:38 4.64725 -74.09484 9819 ft 188 kts 345°
2026-04-24 23:38 4.65788 -74.10192 9660 ft 186 kts 316°
2026-04-24 23:38 4.66660 -74.11149 9358 ft 182 kts 310°
2026-04-24 23:39 4.67392 -74.12075 8986 ft 159 kts 306°
2026-04-24 23:39 4.68027 -74.12925 8737 ft 149 kts 306°
2026-04-24 23:39 4.68649 -74.13745 8537 ft 147 kts 306°
2026-04-24 23:39 4.69272 -74.14559 8385 ft 144 kts 306°
2026-04-24 23:40 4.69787 -74.15243 8376 ft 97 kts 307°
2026-04-24 23:40 4.70093 -74.15647 8376 ft 49 kts 307°
2026-04-24 23:40 4.70302 -74.15921 8377 ft 49 kts 307°
2026-04-24 23:40 4.70346 -74.15976 8375 ft 15 kts 319°
2026-04-24 23:41 4.70440 -74.15950 8376 ft 15 kts 39°
2026-04-24 23:41 4.70499 -74.15903 8376 ft 0 kts 37°
2026-04-24 23:41 4.70500 -74.15902 8376 ft 0 kts 37°
2026-04-24 23:42 4.70504 -74.15898 8376 ft 2 kts 39°
2026-04-24 23:42 4.70518 -74.15863 8372 ft 9 kts 94°
2026-04-24 23:43 4.70477 -74.15798 8375 ft 14 kts 129°
2026-04-24 23:43 4.70413 -74.15712 8373 ft 16 kts 126°
2026-04-24 23:43 4.70339 -74.15615 8375 ft 19 kts 127°
2026-04-24 23:43 4.70262 -74.15514 8375 ft 18 kts 126°
2026-04-24 23:44 4.70184 -74.15408 8375 ft 20 kts 126°
2026-04-24 23:44 4.70095 -74.15291 8376 ft 22 kts 127°
2026-04-24 23:44 4.70006 -74.15175 8376 ft 12 kts 126°
2026-04-24 23:44 4.69951 -74.15103 8374 ft 14 kts 127°
2026-04-24 23:45 4.69887 -74.15016 8376 ft 17 kts 126°
2026-04-24 23:45 4.69862 -74.14956 8376 ft 6 kts 76°
2026-04-24 23:45 4.69933 -74.14886 8375 ft 17 kts 36°
2026-04-24 23:45 4.70032 -74.14812 8375 ft 19 kts 37°
2026-04-24 23:46 4.70098 -74.14762 8374 ft 7 kts 38°
2026-04-24 23:46 4.70145 -74.14725 8373 ft 10 kts 36°
2026-04-24 23:46 4.70207 -74.14680 8375 ft 13 kts 35°
2026-04-24 23:46 4.70284 -74.14622 8375 ft 15 kts 36°
2026-04-24 23:47 4.70309 -74.14604 8375 ft 2 kts 36°
2026-04-24 23:47 4.70327 -74.14590 8375 ft 5 kts 37°
2026-04-24 23:47 4.70368 -74.14557 8375 ft 9 kts 36°
2026-04-24 23:47 4.70426 -74.14511 8374 ft 12 kts 50°
2026-04-24 23:48 4.70413 -74.14428 8373 ft 14 kts 125°
2026-04-24 23:48 4.70353 -74.14352 8375 ft 14 kts 128°
2026-04-24 23:48 4.70295 -74.14272 8374 ft 14 kts 126°
2026-04-24 23:48 4.70246 -74.14207 8375 ft 10 kts 127°
2026-04-24 23:49 4.70198 -74.14146 8375 ft 13 kts 126°
2026-04-24 23:49 4.70150 -74.14081 8375 ft 10 kts 126°
2026-04-24 23:49 4.70091 -74.14031 8375 ft 10 kts 181°
2026-04-24 23:49 4.70059 -74.14037 8374 ft 2 kts 198°
2026-04-24 23:50 4.70055 -74.14058 8374 ft 5 kts 277°
2026-04-24 23:50 4.70072 -74.14096 8374 ft 7 kts 303°
2026-04-24 23:50 4.70104 -74.14141 8374 ft 8 kts 307°
2026-04-24 23:50 4.70141 -74.14187 8375 ft 10 kts 308°
2026-04-24 23:51 4.70164 -74.14251 8374 ft 5 kts 262°
2026-04-24 23:51 4.70160 -74.14289 8375 ft 6 kts 257°
2026-04-24 23:51 4.70154 -74.14310 8374 ft 3 kts 252°
2026-04-24 23:51 4.70148 -74.14327 8375 ft 3 kts 250°
2026-04-24 23:52 4.70145 -74.14338 8375 ft 1 kts 251°
2026-04-24 23:52 4.70143 -74.14342 8375 ft 0 kts 252°